Location: Austin
(30.3000°N, 97.7500°W)
Time: 02:52:43
(UTC-05:00)

Cosmos 1833 - Pass Details

Date: 18 March 2023
Orbit: 830 x 868 km, 70.9° (Epoch: 01 April)

Event Time Altitude Azimuth Distance (km) Brightness Sun altitude
Rises 20:08:43 0° 191° (S) 3,358 7.4 -6.8°
Reaches altitude 10° 20:11:09 10° 188° (S) 2,426 6.7 -7.3°
Maximum altitude 20:16:39 66° 107° (ESE) 905 4.2 -8.5°
Drops below altitude 10° 20:22:10 10° 26° (NNE) 2,442 6.4 -9.7°
Sets 20:24:38 0° 24° (NNE) 3,382 7.1 -10.2°
